This demonstration page uses our WeatherBlox Daily Observations layout. Learn more.

Left ArrowRight Arrow

Hourly Observations for June 16, 2019

Temp ( °F °C ) Dew Point ( °F °C ) Humidity (%) Winds ( mph kmh ) Pressure ( in mb ) Visibility ( mi km ) Precip ( " mm )
12:51 am 00:51 Clear 76 24.4 20 -6.7 12 12 NW 8 13 29.69 1006 10 16 0.00 0.00
1:51 am 01:51 Clear 70 21.1 19 -7.2 14 14 Calm 29.70 1006 10 16 0.00 0.00
2:51 am 02:51 Clear 68 20 20 -6.7 16 16 ESE 5 7 29.72 1006 10 16 0.00 0.00
3:51 am 03:51 Clear 67 19.4 19 -7.2 16 16 SE 5 7 29.73 1007 10 16 0.00 0.00
4:51 am 04:51 Clear 64 17.8 19 -7.2 18 18 SSE 6 9 29.75 1008 10 16 0.00 0.00
5:51 am 05:51 Sunny 65 18.3 20 -6.7 18 18 E 5 7 29.77 1008 10 16 0.00 0.00
6:51 am 06:51 Sunny 71 21.7 20 -6.7 14 14 ESE 3 6 29.78 1008 10 16 0.00 0.00
7:51 am 07:51 Sunny 77 25 23 -5 13 13 SE 5 7 29.79 1009 10 16 0.00 0.00
8:51 am 08:51 Sunny 83 28.3 25 -3.9 12 12 VRB 3 6 29.78 1009 10 16 0.00 0.00
9:51 am 09:51 Sunny 88 31.1 29 -1.7 12 12 VRB 7 11 29.76 1008 10 16 0.00 0.00
10:51 am 10:51 Sunny 92 33.3 29 -1.7 10 10 VRB 6 9 29.74 1007 10 16 0.00 0.00
11:51 am 11:51 Sunny 95 35 25 -3.9 8 8 WSW 8 13 29.72 1006 10 16 0.00 0.00
12:51 pm 12:51 Sunny 96 35.6 23 -5 7 7 undefined N/A 29.69 1005 10 16 0.00 0.00
1:51 pm 13:51 Sunny 97 36.1 20 -6.7 6 6 SW 9 15 29.67 1005 10 16 0.00 0.00
2:51 pm 14:51 Sunny 99 37.2 23 -5 6 6 Calm 29.64 1004 10 16 0.00 0.00
3:51 pm 15:51 Mostly Sunny 100 37.8 20 -6.7 5 5 VRB 3 6 29.62 1003 10 16 0.00 0.00
4:51 pm 16:51 Mostly Sunny 99 37.2 24 -4.4 7 7 WNW 12 19 29.61 1003 10 16 0.00 0.00
5:51 pm 17:51 Partly Cloudy 98 36.7 25 -3.9 7 7 WNW 10 17 29.60 1003 10 16 0.00 0.00
6:51 pm 18:51 Partly Cloudy 96 35.6 28 -2.2 9 9 WNW 12 19 29.60 1002 10 16 0.00 0.00
7:51 pm 19:51 Clear 91 32.8 31 -0.6 12 12 NW 13 20 29.62 1003 10 16 0.00 0.00
8:51 pm 20:51 Clear 89 31.7 30 -1.1 12 12 NW 12 19 29.63 1003 10 16 0.00 0.00
9:51 pm 21:51 Clear 85 29.4 30 -1.1 14 14 WNW 12 19 29.65 1004 10 16 0.00 0.00
10:51 pm 22:51 Clear 82 27.8 31 -0.6 16 16 WNW 10 17 29.66 1004 10 16 0.00 0.00
11:51 pm 23:51 Clear 79 26.1 30 -1.1 17 17 NW 8 13 29.67 1005 10 16 0.00 0.00

Powered by AerisWeather